Weather in Antananarivo

Madagascar     18°54′05″S   47°31′19″E
temp.,
°C
wind,
m/s
gust,
m/s
humid.,
%
clouds,
%
prec.,
mm/h
press.,
hPa
HPBL,
m
8 march, mon
mon800:00+16se129612 0.4 101253
03:00+16sse119719 0.4 101131
06:00+17n119785 0.3 101127
09:00+20ne228481 0.6 1012582
12:00+25nne226355 0.5 10101240
15:00+25nw335845 0.9 10081527
18:00+20n01784 0.3 101026
21:00+18ene389425 1.6 1013243
9 march, tue
tue900:00+16se139817 0.8 101385
03:00+17ese119728 1.0 101255
06:00+16ene119673 0.3 101426
09:00+22ne117748 0.4 1014690
12:00+27nnw115728 0.4 10121449
15:00+25nnw235937 1.1 10111403
18:00+20ne23879 1.3 101391
21:00+17ene269531 3.0 1015221
10 march, wed
wed1000:00+17ne259764 1.1 1015241
03:00+17e149575 1.3 1014300
06:00+17ese239693 0.0 1015157
09:00+21ese237961 0.0 1015658
12:00+23e236793 0.2 10141079
15:00+24e337076 1.4 1011973
18:00+19e369117 5.7 1013187
21:00+17e389729 8.8 1015346
11 march, thu
thu1100:00+17e269788 0.9 1015293
03:00+17se129587 0.9 1014211
06:00+15se239475 0.0 1015146
09:00+20ese247141 0.0 1015628
12:00+24e33530 0.0 10131287
15:00+25ene33582 0.0 10121477
18:00+19e378412 0.4 1013332
21:00+17ese269612 0.4 1015264
12 march, fri
fri1200:00+17ene149287 0.1 1015311
03:00+17ese249385 0.2 1014288
06:00+16ese259171 0.0 1015274
09:00+21se247164 0.0 1016733
12:00+25sse235330 0.0 10131534
15:00+26se455117 0.0 10121978
18:00+20ese387732 0.1 1013349
21:00+16se279641 0.1 1016299